Hillsdale, MI

3:41 AM EST on December 15, 2017 (GMT -0500)
Hillsdale Municipal

Weather History for KJYM - March, 2013

Change the Weather History Date:

Friday, March 8, 2013

  Actual Average Record
Temperature  
Mean Temperature 28 °F -  
Max Temperature 39 °F 41 °F 71 °F (1987)
Min Temperature 18 °F 20 °F -5 °F (1960)
Degree Days  
Heating Degree Days 36    
Moisture  
Dew Point 19 °F    
Average Humidity 66    
Maximum Humidity 94    
Minimum Humidity 42    
Precipitation  
Precipitation 0.00 in - - ()
Sea Level Pressure  
Sea Level Pressure 30.41 in    
Wind  
Wind Speed 0 mph (SE)    
Max Wind Speed 5 mph    
Max Gust Speed -    
Visibility 10 miles    
Events      
Averages and records for this station are not official NWS values.
T = Trace of Precipitation, MM = Missing Value Source: NWS Daily Summary

Daily Weather History Graph

Daily Weather History Graph

Search for Another Location

Airport or City:

Trip Planner

Search our weather history database for the weather conditions in past years. The results will help you decide how hot, cold, wet, or windy it might be!

Date:

Astronomy

Mar. 08, 2013 Rise Set
Actual Time 7:01 AM EST 6:37 PM EST
Civil Twilight 6:33 AM EST 7:05 PM EST
Nautical Twilight 6:01 AM EST 7:37 PM EST
Astronomical Twilight 5:29 AM EST 8:09 PM EST
Moon 4:48 AM EST (3/8) 3:29 PM EST (3/8)
Length of Visible Light 12h 31m
Length of Day
11h 35m
Waning Crescent, 12% of the Moon is Illuminated
Mar 8
Waning Crescent
Mar 11
New
Mar 19
First Quarter
Mar 27
Full
Apr 3
Last Quarter

Hourly Weather History & Observations

Time (EST) Temp. Windchill Dew Point Humidity Pressure Visibility Wind Dir Wind Speed Gust Speed Precip Events Conditions
12:14 AM 30.7 °F - 18.7 °F 61% 30.36 in 10.0 mi Calm Calm - N/A   Overcast
12:35 AM 29.8 °F - 18.3 °F 62% 30.37 in 10.0 mi Calm Calm - N/A   Scattered Clouds
1:14 AM 27.0 °F - 18.1 °F 69% 30.38 in 10.0 mi Calm Calm - N/A   Clear
1:34 AM 25.7 °F - 19.0 °F 76% 30.38 in 10.0 mi Calm Calm - N/A   Clear
1:54 AM 26.2 °F - 18.1 °F 71% 30.38 in 10.0 mi Calm Calm - N/A   Clear
2:14 AM 25.9 °F - 18.1 °F 73% 30.39 in 10.0 mi Calm Calm - N/A   Clear
2:34 AM 25.9 °F - 19.2 °F 76% 30.39 in 10.0 mi Calm Calm - N/A   Clear
2:55 AM 25.5 °F - 19.9 °F 79% 30.39 in 10.0 mi Calm Calm - N/A   Clear
3:14 AM 24.3 °F - 19.4 °F 82% 30.39 in 10.0 mi Calm Calm - N/A   Clear
3:34 AM 24.8 °F - 19.8 °F 81% 30.38 in 10.0 mi Calm Calm - N/A   Clear
3:55 AM 22.6 °F - 18.5 °F 84% 30.39 in 10.0 mi Calm Calm - N/A   Clear
4:14 AM 21.9 °F - 18.1 °F 85% 30.39 in 10.0 mi Calm Calm - N/A   Clear
4:34 AM 22.1 °F - 19.0 °F 88% 30.40 in 10.0 mi Calm Calm - N/A   Clear
4:55 AM 20.8 °F - 18.5 °F 91% 30.40 in 10.0 mi Calm Calm - N/A   Clear
5:14 AM 21.7 °F - 20.1 °F 93% 30.41 in 10.0 mi Calm Calm - N/A   Clear
5:35 AM 21.7 °F - 19.9 °F 93% 30.41 in 10.0 mi Calm Calm - N/A   Clear
5:55 AM 19.6 °F - 17.2 °F 91% 30.42 in 10.0 mi Calm Calm - N/A   Clear
6:14 AM 18.9 °F - 16.7 °F 91% 30.42 in 10.0 mi Calm Calm - N/A   Clear
6:35 AM 18.9 °F - 17.1 °F 93% 30.42 in 10.0 mi Calm Calm - N/A   Clear
6:55 AM 18.1 °F - 16.5 °F 93% 30.43 in 10.0 mi Calm Calm - N/A   Clear
7:14 AM 18.1 °F - 16.5 °F 93% 30.44 in 10.0 mi Calm Calm - N/A   Clear
7:35 AM 18.7 °F - 17.1 °F 93% 30.44 in 4.0 mi Calm Calm - N/A   Clear
7:54 AM 18.3 °F - 16.7 °F 93% 30.44 in 7.0 mi Calm Calm - N/A   Clear
8:14 AM 19.8 °F - 18.1 °F 93% 30.45 in 5.0 mi Calm Calm - N/A   Clear
8:35 AM 21.6 °F - 20.1 °F 94% 30.45 in 10.0 mi Calm Calm - N/A   Clear
8:54 AM 24.4 °F 20.1 °F 18.5 °F 78% 30.45 in 10.0 mi ENE 3.5 mph - N/A   Clear
9:14 AM 27.5 °F - 18.3 °F 68% 30.45 in 10.0 mi Calm Calm - N/A   Clear
9:34 AM 29.1 °F - 18.1 °F 64% 30.45 in 10.0 mi Calm Calm - N/A   Clear
9:54 AM 31.3 °F - 18.3 °F 59% 30.45 in 10.0 mi Calm Calm - N/A   Clear
10:14 AM 32.0 °F - 18.1 °F 57% 30.45 in 10.0 mi Calm Calm - N/A   Clear
10:34 AM 33.4 °F - 17.6 °F 52% 30.46 in 10.0 mi Calm Calm - N/A   Clear
10:55 AM 34.0 °F - 17.2 °F 50% 30.46 in 10.0 mi Calm Calm - N/A   Clear
11:14 AM 35.4 °F - 18.5 °F 50% 30.46 in 10.0 mi Calm Calm - N/A   Clear
11:35 AM 35.6 °F - 18.5 °F 50% 30.45 in 10.0 mi Calm Calm - N/A   Unknown
11:55 AM 37.8 °F - 17.8 °F 44% 30.45 in 10.0 mi Calm Calm - N/A   Unknown
12:14 PM 35.8 °F - 17.6 °F 48% 30.45 in 10.0 mi Calm Calm - N/A   Unknown
12:35 PM 36.1 °F - 18.0 °F 48% 30.45 in 10.0 mi Calm Calm - N/A   Unknown
12:54 PM 36.7 °F - 17.6 °F 46% 30.45 in 10.0 mi Calm Calm - N/A   Clear
1:15 PM 37.2 °F - 17.2 °F 44% 30.44 in 10.0 mi Calm Calm - N/A   Clear
1:35 PM 37.4 °F - 18.3 °F 46% 30.43 in 10.0 mi Calm Calm - N/A   Clear
1:54 PM 38.1 °F - 19.0 °F 46% 30.43 in 10.0 mi Calm Calm - N/A   Clear
2:15 PM 39.0 °F - 17.8 °F 42% 30.41 in 10.0 mi Calm Calm - N/A   Clear
2:35 PM 38.5 °F - 18.1 °F 44% 30.41 in 10.0 mi Calm Calm - N/A   Clear
2:54 PM 38.7 °F - 18.5 °F 44% 30.41 in 10.0 mi Calm Calm - N/A   Clear
3:15 PM 38.7 °F 36.3 °F 19.6 °F 46% 30.41 in 10.0 mi South 3.5 mph - N/A   Clear
3:34 PM 38.7 °F 35.2 °F 19.4 °F 46% 30.41 in 10.0 mi SSE 4.6 mph - N/A   Clear
3:55 PM 39.2 °F - 18.5 °F 43% 30.41 in 10.0 mi Calm Calm - N/A   Clear
4:14 PM 39.7 °F - 18.7 °F 43% 30.41 in 10.0 mi Calm Calm - N/A   Clear
4:34 PM 38.7 °F - 19.4 °F 46% 30.40 in 10.0 mi Calm Calm - N/A   Clear
4:55 PM 38.8 °F - 18.3 °F 44% 30.40 in 10.0 mi Calm Calm - N/A   Clear
5:14 PM 38.5 °F - 19.8 °F 47% 30.39 in 10.0 mi Calm Calm - N/A   Clear
5:34 PM 38.5 °F 36.1 °F 19.0 °F 46% 30.40 in 10.0 mi SE 3.5 mph - N/A   Clear
5:55 PM 38.1 °F 35.7 °F 18.7 °F 46% 30.39 in 10.0 mi SE 3.5 mph - N/A   Clear
6:14 PM 36.7 °F - 19.4 °F 50% 30.40 in 10.0 mi Calm Calm - N/A   Clear
6:35 PM 35.8 °F - 19.4 °F 51% 30.39 in 10.0 mi Calm Calm - N/A   Clear
6:55 PM 36.0 °F - 19.0 °F 50% 30.39 in 10.0 mi Calm Calm - N/A   Clear
7:14 PM 36.0 °F - 19.0 °F 50% 30.39 in 10.0 mi Calm Calm - N/A   Clear
7:35 PM 33.3 °F - 20.5 °F 59% 30.39 in 10.0 mi Calm Calm - N/A   Clear
7:55 PM 31.5 °F - 20.1 °F 63% 30.39 in 10.0 mi Calm Calm - N/A   Clear
8:14 PM 31.6 °F - 19.4 °F 61% 30.40 in 10.0 mi Calm Calm - N/A   Clear
8:35 PM 30.0 °F - 20.5 °F 68% 30.40 in 10.0 mi Calm Calm - N/A   Clear
8:54 PM 30.4 °F - 20.1 °F 66% 30.40 in 10.0 mi Calm Calm - N/A   Clear
9:14 PM 30.6 °F - 19.6 °F 64% 30.40 in 10.0 mi Calm Calm - N/A   Clear
9:35 PM 28.4 °F - 20.1 °F 71% 30.40 in 10.0 mi Calm Calm - N/A   Clear
9:54 PM 28.4 °F - 19.9 °F 71% 30.40 in 10.0 mi Calm Calm - N/A   Clear
10:14 PM 28.6 °F - 19.8 °F 70% 30.39 in 10.0 mi Calm Calm - N/A   Clear
10:35 PM 27.1 °F - 20.5 °F 76% 30.40 in 10.0 mi Calm Calm - N/A   Clear
10:54 PM 27.5 °F - 21.6 °F 78% 30.39 in 10.0 mi Calm Calm - N/A   Clear
11:15 PM 26.4 °F - 20.8 °F 79% 30.38 in 10.0 mi Calm Calm - N/A   Clear
11:35 PM 27.5 °F 23.6 °F 21.2 °F 77% 30.37 in 10.0 mi ESE 3.5 mph - N/A   Clear
11:54 PM 30.6 °F 27.1 °F 22.1 °F 71% 30.36 in 10.0 mi ESE 3.5 mph - N/A   Clear